Dewpoint
12 12 12 10 9 7 5 3 1 1 0 -0 -0 -1 -1 -2 -3 -3 -3 -3 -4 -4 -4 -4 -4 -4 -4 -1 6 8 8 12 13 12 13 14 13 13 15 16 16 15 16 17 17 18 19 22 24 25 25 27 29 30 30 31 31 32 31 31 31 32 33
12 13 12 11 10 8 6 4 2 1 0 -0 -0 -1 -1 -2 -2 -3 -3 -2 -4 -4 -3 -2 2 2 -2 1 9 11 11 13 11 12 12 12 13 12 14 15 14 14 14 15 15 16 18 19 20 24 27 26 27 29 30 30 31 31 31 30 30 31 31
11 11 11 10 9 8 7 5 3 2 2 3 2 0 -1 -1 -2 -2 -2 -1 -2 -2 -1 3 2 2 3 6 10 10 10 12 12 13 13 13 13 13 13 14 14 14 14 14 14 15 16 17 18 20 25 28 26 28 29 29 30 30 30 30 30 30 30
11 10 9 9 8 7 6 5 5 5 3 3 2 1 2 -0 -1 2 3 2 4 4 4 3 3 3 4 8 10 11 10 11 12 12 12 12 12 12 12 11 11 14 13 13 14 14 14 15 17 20 24 24 23 24 25 28 29 29 29 29 29 30 30
10 9 9 8 9 8 6 5 5 4 3 3 3 2 3 4 4 4 3 3 3 5 5 5 5 5 6 8 10 10 10 10 11 13 11 11 12 10 11 12 12 12 13 13 13 14 15 15 16 18 21 24 24 23 23 27 26 27 27 27 28 29 30
6 8 7 7 7 6 6 5 4 4 4 4 3 2 1 4 4 2 4 4 3 4 5 6 6 6 7 9 10 11 11 11 12 12 12 12 11 11 11 11 11 11 11 12 12 13 14 17 18 20 21 24 25 24 25 25 26 26 26 26 26 26 27
3 4 5 5 5 5 4 4 4 4 3 2 2 5 5 4 3 2 3 3 3 4 5 7 7 8 9 9 11 12 11 11 12 11 11 11 11 11 11 8 7 8 10 10 11 12 14 15 17 17 18 19 21 24 25 25 24 24 25 24 24 23 23
4 3 4 4 4 4 4 4 4 3 3 5 5 5 4 3 3 2 3 4 5 6 7 7 8 9 9 11 12 12 12 12 10 9 9 9 10 10 8 6 5 5 5 6 7 9 11 12 13 12 13 14 17 22 23 20 22 22 20 17 15 14 16
4 4 3 3 4 5 4 5 5 5 4 4 4 4 3 3 3 3 5 7 7 8 8 9 9 10 11 12 13 13 13 13 11 9 8 8 9 9 8 6 4 3 3 3 4 7 10 10 10 9 9 9 10 11 12 15 18 20 17 15 13 12 11
5 5 5 4 5 5 4 4 3 3 5 6 5 6 6 6 7 7 8 8 7 7 7 9 10 10 12 12 13 13 13 12 12 12 10 8 9 8 7 6 6 4 2 3 4 5 8 9 9 8 7 7 7 9 11 11 13 18 16 13 12 11 8
4 4 3 3 3 3 2 2 2 4 10 12 13 10 9 9 9 10 10 9 9 7 5 6 9 11 11 12 11 11 12 11 10 10 10 9 10 9 8 7 6 5 5 4 4 5 7 7 7 6 5 4 5 6 9 9 11 12 16 14 13 10 10
2 2 2 2 2 1 0 0 2 9 11 12 13 12 8 8 7 8 8 8 8 9 8 7 9 10 8 7 8 8 8 9 8 8 7 7 7 7 8 10 8 6 4 3 3 3 4 4 4 4 4 2 2 2 6 9 9 10 10 11 10 9 5
0 1 1 1 0 -0 -0 -0 2 9 11 12 13 13 11 7 8 7 7 8 8 8 7 6 6 7 6 5 7 8 4 3 5 5 4 3 3 4 5 8 9 10 6 4 3 3 2 1 2 1 2 2 1 3 5 7 6 7 7 7 4 2 1
-1 0 0 -0 -1 -2 -2 -1 -0 8 11 12 13 13 11 8 8 8 8 8 7 7 7 7 6 6 5 4 3 4 1 -1 -1 -2 -2 -2 -2 -2 -0 2 5 8 7 5 3 3 0 2 2 1 2 2 2 0 2 3 2 3 4 3 2 1 -0
-1 -1 -1 -2 -2 -3 -3 -3 2 9 11 11 12 12 11 8 8 7 6 5 4 3 4 3 3 3 3 3 3 3 1 -2 -2 -2 -4 -4 -5 -4 -4 -2 1 5 5 3 3 3 4 5 5 4 3 2 0 -1 -1 1 0 0 2 3 2 0 -0
-1 -2 -2 -3 -3 -4 -4 -3 5 8 10 11 11 11 6 6 6 4 2 2 1 1 2 1 2 2 2 2 3 5 7 2 -2 -3 -4 -5 -7 -7 -5 -4 -1 8 10 6 4 4 4 4 5 9 6 5 3 -1 -2 -1 -1 -1 -1 1 1 -1 -5
-2 -3 -3 -4 -4 -5 -5 -4 0 7 9 10 11 9 5 5 3 1 1 -0 -1 -0 0 1 2 2 2 3 3 4 8 10 1 -4 -6 -6 -8 -8 -8 -8 -10 -0 6 8 9 9 8 8 8 8 8 9 8 3 -1 -4 -4 -3 -3 -3 -1 -2 -4
-3 -4 -4 -4 -5 -4 -5 -5 -2 4 9 10 11 9 5 4 2 -0 -1 -1 -2 -1 -0 -0 2 3 3 3 3 5 8 10 1 -6 -7 -7 -9 -12 -11 -11 -12 -12 -9 -1 2 3 4 4 3 2 1 4 4 3 -5 -11 -7 -8 -8 -7 -4 -3 -6
-4 -5 -5 -5 -5 -4 -4 -4 -3 1 9 10 11 8 6 3 0 -2 -2 -2 -2 -2 -1 0 -0 1 2 3 4 8 7 10 -1 -5 -7 -8 -10 -13 -14 -14 -14 -14 -13 -13 -12 -15 -15 -16 -14 -15 -16 -14 -12 -10 -10 -15 -15 -14 -12 -10 -8 -8 -8
-5 -5 -6 -5 -5 -5 -5 -5 -4 -1 9 10 10 9 5 1 -0 -2 -4 -3 -3 -3 -3 -3 -3 -3 -1 2 5 7 8 6 2 -6 -9 -11 -13 -15 -15 -13 -15 -16 -17 -16 -17 -17 -17 -17 -17 -17 -18 -17 -17 -17 -14 -16 -16 -15 -15 -14 -13 -12 -12
-5 -6 -6 -5 -4 -4 -3 -2 -1 0 7 10 8 9 4 -1 -2 -3 -4 -5 -5 -7 -6 -7 -7 -6 -3 0 2 5 8 7 4 -3 -12 -14 -16 -16 -12 -15 -20 -18 -17 -19 -21 -21 -22 -23 -22 -21 -22 -22 -21 -21 -20 -19 -17 -16 -14 -16 -16 -17 -17
-6 -7 -7 -6 -4 -3 -3 -3 -3 -2 3 8 8 7 4 -3 -5 -5 -8 -9 -10 -8 -7 -6 -6 -3 -0 1 3 6 6 6 5 1 -9 -7 1 3 -4 -20 -21 -21 -23 -24 -25 -25 -24 -24 -24 -25 -24 -24 -24 -23 -21 -21 -21 -18 -17 -17 -16 -18 -19
-7 -7 -8 -7 -6 -4 -4 -4 -6 -3 0 4 5 5 4 2 -0 -1 -9 -10 -11 -9 -6 -4 -2 1 5 3 5 8 6 5 4 1 1 5 3 -4 -14 -18 -23 -23 -25 -26 -25 -25 -25 -25 -25 -25 -25 -25 -25 -24 -22 -23 -22 -20 -19 -19 -17 -17 -18
-8 -8 -8 -7 -7 -6 -5 -6 -7 -6 -2 -0 4 4 4 4 2 -3 -7 -8 -9 -7 -5 -5 -4 -3 4 7 8 7 7 5 -1 -2 2 -0 -11 -14 -17 -23 -24 -24 -24 -24 -25 -25 -26 -26 -25 -25 -26 -26 -25 -25 -23 -23 -22 -22 -20 -20 -21 -19 -20
-9 -9 -9 -8 -7 -7 -7 -7 -7 -8 -7 -2 -2 2 2 2 -0 -3 -5 -8 -6 -5 -5 -4 -2 -3 -3 -1 3 0 -6 -11 -12 -11 -11 -13 -16 -18 -23 -24 -25 -25 -26 -27 -27 -27 -27 -27 -27 -26 -26 -23 -22 -23 -24 -24 -25 -23 -23 -21 -21 -22 -22
-10 -10 -9 -9 -8 -7 -7 -8 -8 -9 -10 -8 -6 -4 -0 0 -3 -4 -5 -6 -7 -7 -7 -7 -8 -10 -10 -11 -12 -16 -16 -17 -16 -15 -16 -17 -19 -22 -24 -25 -26 -26 -26 -27 -27 -27 -28 -28 -28 -28 -27 -23 -23 -27 -28 -26 -28 -28 -28 -26 -26 -27 -27
-10 -10 -10 -10 -9 -8 -8 -8 -8 -9 -10 -10 -10 -9 -8 -8 -8 -7 -9 -13 -14 -13 -14 -13 -13 -13 -12 -13 -13 -14 -15 -18 -20 -22 -23 -23 -23 -24 -26 -25 -25 -25 -26 -27 -28 -28 -29 -29 -30 -29 -28 -29 -28 -29 -28 -26 -27 -29 -29 -29 -28 -28 -28
-10 -10 -10 -10 -9 -10 -10 -10 -10 -10 -10 -11 -11 -12 -12 -13 -14 -14 -15 -16 -18 -18 -18 -19 -18 -20 -23 -23 -23 -24 -25 -25 -25 -25 -25 -26 -25 -24 -22 -22 -22 -24 -28 -28 -29 -30 -30 -30 -30 -30 -30 -30 -30 -30 -29 -27 -30 -29 -30 -30 -29 -31 -31
-9 -9 -9 -10 -10 -10 -10 -10 -10 -9 -8 -10 -9 -11 -13 -14 -15 -16 -17 -16 -17 -22 -23 -24 -25 -25 -26 -27 -27 -26 -26 -27 -27 -27 -27 -26 -27 -28 -29 -29 -29 -29 -29 -29 -30 -30 -30 -31 -30 -31 -30 -30 -31 -30 -29 -27 -30 -29 -30 -30 -30 -30 -30
-6 -8 -9 -10 -10 -9 -10 -10 -10 -8 -5 -1 -3 -5 -8 -11 -10 -13 -16 -14 -16 -22 -25 -26 -27 -27 -28 -28 -29 -28 -28 -28 -28 -28 -28 -28 -26 -29 -29 -29 -29 -30 -30 -30 -30 -30 -31 -31 -31 -31 -30 -30 -30 -30 -30 -28 -26 -29 -29 -29 -29 -29 -29
3 3 0 -6 -9 -8 -5 -4 -4 -4 0 3 4 1 -2 -5 -8 -11 -12 -14 -22 -28 -30 -31 -30 -31 -31 -30 -29 -29 -29 -29 -29 -29 -30 -30 -30 -29 -29 -30 -30 -30 -30 -30 -31 -31 -31 -31 -30 -31 -30 -30 -30 -30 -30 -30 -30 -29 -29 -29 -29 -28 -28
2 2 3 -0 -4 -7 -11 -7 -6 -4 2 1 3 4 0 -2 -5 -7 -10 -15 -22 -30 -30 -31 -31 -31 -31 -31 -31 -30 -30 -30 -30 -30 -30 -31 -31 -31 -31 -30 -31 -30 -30 -31 -31 -31 -31 -31 -31 -31 -30 -30 -30 -30 -30 -30 -30 -30 -30 -29 -29 -29 -29
-0 1 -0 -1 -2 -2 -2 -5 -4 -3 -2 1 1 2 -2 -2 -4 -8 -13 -16 -26 -26 -29 -31 -32 -31 -31 -31 -31 -31 -31 -31 -30 -30 -31 -31 -31 -31 -31 -29 -27 -28 -30 -31 -31 -31 -31 -31 -31 -31 -31 -31 -31 -31 -31 -30 -30 -30 -30 -29 -29 -29 -29
-5 -5 -5 -5 -4 -3 -2 -4 -4 -5 -5 -0 1 -0 -2 -5 -9 -9 -13 -21 -24 -25 -27 -31 -32 -32 -31 -31 -31 -31 -31 -31 -31 -31 -31 -31 -31 -30 -30 -28 -28 -29 -30 -31 -30 -32 -32 -32 -32 -32 -32 -32 -32 -31 -31 -30 -30 -29 -29 -29 -29 -29 -29
-13 -10 -9 -11 -10 -8 -8 -8 -8 -8 -7 -4 -3 -3 -4 -4 -12 -16 -20 -24 -26 -27 -28 -31 -31 -32 -31 -31 -31 -31 -31 -31 -30 -31 -31 -31 -31 -31 -31 -30 -30 -30 -31 -32 -32 -32 -32 -32 -32 -32 -32 -32 -31 -31 -30 -30 -30 -30 -30 -30 -29 -29 -29
-14 -14 -16 -13 -11 -8 -8 -9 -9 -9 -8 -4 -3 -3 -5 -12 -14 -15 -18 -20 -25 -27 -30 -31 -31 -31 -31 -31 -31 -31 -31 -31 -31 -31 -31 -31 -31 -31 -31 -31 -31 -30 -31 -31 -32 -32 -31 -31 -32 -32 -32 -31 -32 -32 -31 -31 -31 -31 -30 -29 -29 -28 -29